This is the latest recevied weather packets stored in our database for station/object DK4MDA-13. If no packets are shown the sender has not sent any weather packets the latest 10 day(s).
| Time | Temp. | Humidity | Pressure | Rain* | Wind** | Luminosity | Snow |
|---|---|---|---|---|---|---|---|
| 1777772833 | 10° C | 78% | 1013.6 hPa | 0 mm | - | - | - |
| 1777772533 | 10° C | 78% | 1013.6 hPa | 0 mm | - | - | - |
| 1777772233 | 9.44° C | 78% | 1013.6 hPa | 0 mm | - | - | - |
| 1777771933 | 9.44° C | 78% | 1013.6 hPa | 0 mm | - | - | - |
| 1777771633 | 9.44° C | 78% | 1013.6 hPa | 0 mm | - | - | - |
| 1777771333 | 10° C | 77% | 1013.7 hPa | 0 mm | - | - | - |
| 1777771033 | 10° C | 77% | 1013.6 hPa | 0 mm | - | - | - |
| 1777770733 | 10° C | 77% | 1013.6 hPa | 0 mm | - | - | - |
| 1777770433 | 10° C | 77% | 1013.7 hPa | 0 mm | - | - | - |
| 1777770133 | 10° C | 76% | 1013.7 hPa | 0 mm | - | - | - |
| 1777769833 | 10° C | 76% | 1013.6 hPa | 0 mm | - | - | - |
| 1777769533 | 10° C | 76% | 1013.6 hPa | 0 mm | - | - | - |
| 1777769233 | 10° C | 75% | 1013.8 hPa | 0 mm | - | - | - |
| 1777768933 | 10.56° C | 75% | 1013.7 hPa | 0 mm | - | - | - |
| 1777768633 | 10.56° C | 75% | 1013.8 hPa | 0 mm | - | - | - |
| 1777768333 | 10.56° C | 74% | 1013.8 hPa | 0 mm | - | - | - |
| 1777768033 | 10.56° C | 74% | 1013.9 hPa | 0 mm | - | - | - |
| 1777767733 | 11.11° C | 74% | 1013.9 hPa | 0 mm | - | - | - |
| 1777767433 | 11.11° C | 72% | 1013.9 hPa | 0 mm | - | - | - |
| 1777767133 | 11.11° C | 72% | 1014 hPa | 0 mm | - | - | - |
| 1777766833 | 11.67° C | 71% | 1014 hPa | 0 mm | - | - | - |
| 1777766533 | 11.67° C | 70% | 1014.2 hPa | 0 mm | - | - | - |
| 1777766233 | 12.22° C | 70% | 1014.1 hPa | 0 mm | - | - | - |
| 1777765933 | 12.22° C | 69% | 1014.1 hPa | 0 mm | - | - | - |
| 1777765633 | 12.78° C | 68% | 1014.2 hPa | 0 mm | - | - | - |
* Rain latest hour (hover to see other rain measurements)
** Current wind speed in m/s (hover to see current wind gust speed)